Location: Waltman Observatory
(32.5145°N, 90.4450°W)
Time: 05:22:56
(UTC-05:00)

Amateur Radio Satellites - All Passes

Search period start: 28 July 2015 04:52
Search period end: 29 July 2015 04:52
Location: Waltman Observatory, 32.5145°N, 90.4450°W

Satellite Date Start Highest point End Downlink Frequencies (MHz)
Time Altitude Azimuth
JAS-2 28 Jul 05:12:45 05:19:59 42° 290° (WNW) 05:27:06 435.910
AO-7 28 Jul 05:20:39 05:29:02 84° 287° (WNW) 05:37:20 29.400- 29.500
CUSAT 1 28 Jul 05:26:05 05:29:32 44° 278° (W) 05:32:20 437.405
MOZHAYETS 4 28 Jul 05:33:43 05:37:47 30° 264° (W) 05:41:50
CUBESAT XI-V 28 Jul 05:38:24 05:41:49 21° 71° (ENE) 05:45:22 437.345
RS-15 28 Jul 05:48:54 05:57:13 22° 36° (NE) 06:06:17 29.354- 29.394
STRAND 1 28 Jul 05:56:59 05:57:38 10° 65° (ENE) 05:58:38 437.568
SRMSAT 28 Jul 06:15:42 06:18:25 13° 165° (SSE) 06:21:15 437.500
DANDE 28 Jul 06:15:57 06:18:48 18° 280° (W) 06:21:08 436.750
JUGNU 28 Jul 06:19:29 06:23:54 22° 174° (S) 06:28:19 437.505
HORYU 2 28 Jul 06:20:14 06:21:35 11° 293° (WNW) 06:22:39 437.375
ISS 28 Jul 06:25:12 06:28:28 88° 55° (NE) 06:31:43 145.825
Cubesat XI-IV 28 Jul 06:27:19 06:31:24 23° 94° (E) 06:35:38 437.490
GONETS M04 28 Jul 06:31:05 06:39:27 55° 91° (E) 06:47:52
PRISM 28 Jul 07:06:31 07:10:31 46° 75° (ENE) 07:14:33 437.425
CUBESAT XI-V 28 Jul 07:14:54 07:19:05 31° 264° (W) 07:23:13 437.345
AO-7 28 Jul 07:16:11 07:20:49 15° 303° (WNW) 07:24:55 29.400- 29.500
CUTE-I 28 Jul 07:23:43 07:29:03 87° 97° (E) 07:34:23 437.470
STRAND 1 28 Jul 07:31:07 07:36:16 77° 258° (WSW) 07:41:27 437.568
Cosmos 2499 28 Jul 07:32:06 07:37:35 25° 86° (E) 07:43:37 435.465 / 435.565
RS-15 28 Jul 08:00:06 08:12:01 79° 61° (ENE) 08:24:20 29.354- 29.394
GOMX 1 28 Jul 08:00:13 08:02:04 13° 92° (E) 08:04:15 467.674
SRMSAT 28 Jul 08:02:35 08:06:59 22° 174° (S) 08:11:25 437.500
HO-68 28 Jul 08:04:18 08:06:13 11° 89° (E) 08:08:48 435.675
Cubesat XI-IV 28 Jul 08:06:46 08:11:35 35° 289° (WNW) 08:16:19 437.490
JUGNU 28 Jul 08:07:52 08:12:20 22° 184° (S) 08:16:47 437.505
GONETS M04 28 Jul 08:29:34 08:36:46 27° 289° (WNW) 08:43:38
PRISM 28 Jul 08:45:02 08:46:15 11° 269° (W) 08:47:09 437.425
AUBIESAT-1 28 Jul 08:51:05 08:53:49 19° 65° (ENE) 08:56:50 437.475
COMPASS 1 28 Jul 08:53:18 08:55:16 13° 92° (E) 08:57:28 437.405
CINEMA 3 28 Jul 08:53:24 08:55:32 13° 92° (E) 08:57:58 145.822/145.860
CUTE 1.7 + AOD 2 28 Jul 08:55:05 08:58:33 24° 95° (E) 09:02:05 437.475
SEEDS 28 Jul 08:59:45 09:03:00 22° 95° (E) 09:06:20 437.485
BRITE-PL 28 Jul 09:02:16 09:06:34 65° 283° (WNW) 09:11:09 437.365/2234.400
CANX-2 28 Jul 09:02:24 09:06:19 34° 97° (E) 09:10:13 2200.000
Cosmos 2499 28 Jul 09:23:26 09:30:20 46° 283° (WNW) 09:37:39 435.465 / 435.565
BEESAT 2 28 Jul 09:25:15 09:27:28 14° 50° (NE) 09:29:48 435.950
SO-50 28 Jul 09:35:42 09:39:13 22° 110° (ESE) 09:42:57 436.795
GOMX 1 28 Jul 09:36:07 09:40:25 47° 284° (WNW) 09:44:58 467.674
AAUSAT CUBESAT 2 28 Jul 09:37:05 09:41:02 40° 98° (E) 09:44:59 437.432
DOVE 4 28 Jul 09:46:18 09:50:49 62° 284° (WNW) 09:55:36 437.250
UWE-3 28 Jul 09:47:27 09:50:37 19° 94° (E) 09:53:58 435.000/436.395/437.385
HO-68 28 Jul 09:47:44 09:54:57 89° 104° (ESE) 10:02:10 435.675
M-CUBED/EXP-1 PRIME 28 Jul 09:50:44 09:54:25 58° 255° (WSW) 09:58:28 437.505
SRMSAT 28 Jul 09:51:02 09:55:35 23° 184° (S) 10:00:08 437.500
PCSat 28 Jul 09:52:33 09:57:47 54° 112° (ESE) 10:03:05 145.827
CUBEBUG 2 28 Jul 09:52:53 09:56:51 28° 96° (E) 10:00:57 437.445
DELFI C3 28 Jul 09:55:37 09:58:12 17° 93° (E) 10:00:55 145.870
JUGNU 28 Jul 09:57:28 10:00:45 15° 193° (SSW) 10:03:56 437.505
FUNcube-1 28 Jul 09:57:39 10:00:37 18° 93° (E) 10:03:47 145.935
ANTELSAT 28 Jul 10:01:36 10:04:35 19° 70° (ENE) 10:07:45 437.575/2403.000
TIGRISAT 28 Jul 10:01:53 10:04:46 18° 70° (ENE) 10:07:51 435.000
BEESAT 3 28 Jul 10:10:19 10:14:18 60° 60° (ENE) 10:18:13 437.485
RS-15 28 Jul 10:14:35 10:23:39 24° 255° (WSW) 10:32:09 29.354- 29.394
Oscar 11 28 Jul 10:17:24 10:21:39 52° 99° (E) 10:25:54 145.826/435.025
POPSAT HIP 1 28 Jul 10:24:19 10:25:47 12° 69° (ENE) 10:27:29 437.405
AUBIESAT-1 28 Jul 10:25:12 10:28:23 25° 261° (W) 10:31:44 437.475
COMPASS 1 28 Jul 10:27:12 10:31:08 37° 286° (WNW) 10:35:00 437.405
AIST 2 28 Jul 10:27:59 10:30:28 16° 50° (NE) 10:33:05 435.215
CINEMA 3 28 Jul 10:28:28 10:32:58 48° 284° (WNW) 10:37:36 145.822/145.860
QB50P2 28 Jul 10:29:56 10:32:13 15° 70° (ENE) 10:34:42 145.880/145.840
CUTE 1.7 + AOD 2 28 Jul 10:31:00 10:34:22 22° 288° (WNW) 10:37:36 437.475
SEEDS 28 Jul 10:35:15 10:38:44 24° 288° (WNW) 10:42:07 437.485
CANX-2 28 Jul 10:39:15 10:41:59 16° 290° (WNW) 10:44:32 2200.000
DX 1 28 Jul 10:41:04 10:43:10 14° 92° (E) 10:45:30 434.975-435.025
BUGSAT 1 28 Jul 10:51:14 10:53:26 15° 70° (ENE) 10:55:50 437.445
UNISAT 6 28 Jul 10:51:43 10:55:58 79° 79° (ENE) 11:00:22 437.425
HUMSAT D 28 Jul 10:56:33 11:00:27 33° 97° (E) 11:04:24 437.325/437.525
QB50P1 28 Jul 10:57:56 11:01:37 31° 73° (ENE) 11:05:21 145.935-145.965
DUCHIFAT 1 28 Jul 10:58:10 11:01:48 30° 73° (ENE) 11:05:29 145.980
NANOSAT C BR1 28 Jul 11:00:55 11:04:39 33° 74° (ENE) 11:08:28 145.865
BEESAT 2 28 Jul 11:01:55 11:05:45 40° 246° (WSW) 11:09:28 435.950
ZACube-1 28 Jul 11:08:51 11:13:20 63° 284° (WNW) 11:17:52 437.345
AAUSAT CUBESAT 2 28 Jul 11:14:14 11:16:18 13° 290° (WNW) 11:18:10 437.432
SO-50 28 Jul 11:15:16 11:19:34 33° 305° (NW) 11:23:58 436.795
UWE-3 28 Jul 11:23:05 11:27:11 33° 287° (WNW) 11:31:19 435.000/436.395/437.385
CUBEBUG 2 28 Jul 11:29:46 11:33:23 22° 288° (WNW) 11:36:57 437.445
DELFI C3 28 Jul 11:29:49 11:33:18 27° 287° (WNW) 11:36:43 145.870
FUNcube-1 28 Jul 11:32:55 11:37:01 34° 286° (WNW) 11:41:06 145.935
AISAT 28 Jul 11:32:58 11:36:58 34° 98° (E) 11:41:00 437.250
ANTELSAT 28 Jul 11:37:28 11:41:11 28° 264° (W) 11:44:56 437.575/2403.000
TIGRISAT 28 Jul 11:37:36 11:41:21 29° 264° (W) 11:45:06 435.000
PCSat 28 Jul 11:37:53 11:41:36 18° 308° (NW) 11:45:08 145.827
HO-68 28 Jul 11:38:07 11:41:54 15° 299° (WNW) 11:45:14 435.675
POLYITAN 1 28 Jul 11:38:10 11:42:21 77° 258° (WSW) 11:46:34 437.675
SRMSAT 28 Jul 11:40:40 11:44:10 16° 193° (SSW) 11:47:35 437.500
O/OREOS (USA 219) 28 Jul 11:44:09 11:46:15 13° 58° (ENE) 11:48:36 437.305
AIST 1 28 Jul 11:48:23 11:49:54 12° 88° (E) 11:51:42
50 SAT 28 Jul 11:51:28 11:55:27 74° 100° (E) 11:59:24 437.505
UKube-1 28 Jul 11:54:03 11:58:22 80° 283° (WNW) 12:02:40 .
Oscar 11 28 Jul 11:56:02 11:57:25 11° 292° (WNW) 11:58:33 145.826/435.025
POPSAT HIP 1 28 Jul 11:57:18 12:01:18 44° 261° (W) 12:05:19 437.405
CUBEBUG 1 28 Jul 12:00:54 12:04:56 38° 98° (E) 12:08:59 437.445
QB50P2 28 Jul 12:03:59 12:07:51 35° 262° (W) 12:11:42 145.880/145.840
AIST 2 28 Jul 12:05:21 12:09:14 39° 246° (WSW) 12:13:03 435.215
YUBILEINY 28 Jul 12:06:08 12:14:41 54° 79° (E) 12:23:17 435.215
ESTCUBE 1 28 Jul 12:07:23 12:11:49 58° 100° (E) 12:16:13 437.505/2401.250
VELOX 1 28 Jul 12:13:05 12:17:30 79° 283° (WNW) 12:21:53 145.980
DX 1 28 Jul 12:15:34 12:19:36 38° 287° (WNW) 12:23:37 434.975-435.025
BUGSAT 1 28 Jul 12:24:59 12:28:41 32° 262° (W) 12:32:20 437.445
Cosmos 2491 28 Jul 12:32:14 12:40:27 47° 90° (E) 12:48:44 435.465 / 435.565
HUMSAT D 28 Jul 12:33:09 12:35:56 17° 290° (WNW) 12:38:34 437.325/437.525
QB50P1 28 Jul 12:34:54 12:37:34 16° 267° (W) 12:40:03 145.935-145.965
DUCHIFAT 1 28 Jul 12:34:56 12:37:40 16° 267° (W) 12:40:15 145.980
NANOSAT C BR1 28 Jul 12:38:09 12:40:38 15° 267° (W) 12:42:55 145.865
SPROUT 28 Jul 12:53:37 12:57:44 44° 99° (E) 13:01:51 437.525
AISAT 28 Jul 13:10:25 13:13:18 17° 290° (WNW) 13:16:02 437.250
Oscar 19 28 Jul 13:13:45 13:18:24 38° 72° (ENE) 13:23:08 437.125/150
O/OREOS (USA 219) 28 Jul 13:21:36 13:26:01 49° 255° (WSW) 13:30:26 437.305
TISAT 1 28 Jul 13:22:31 13:26:41 60° 100° (E) 13:30:50 437.305
AIST 1 28 Jul 13:23:05 13:27:14 41° 280° (W) 13:31:21
BEESAT 28 Jul 13:37:52 13:39:28 12° 91° (E) 13:41:23 436.000
CUBEBUG 1 28 Jul 13:38:34 13:41:00 14° 291° (WNW) 13:43:13 437.445
Gurwin Techsat 1B 28 Jul 13:39:46 13:43:22 20° 68° (ENE) 13:47:11 435.225
ESTCUBE 1 28 Jul 13:47:12 13:48:14 10° 293° (WNW) 13:48:58 437.505/2401.250
Cosmos 2504 28 Jul 13:47:31 13:54:20 28° 73° (ENE) 14:01:35 435.465 / 435.565
SWISSCUBE 28 Jul 13:56:02 13:59:39 22° 95° (E) 14:03:24 437.505
YUBILEINY 28 Jul 14:03:56 14:11:06 27° 274° (W) 14:17:56 435.215
ITUPSAT 1 28 Jul 14:14:25 14:18:40 32° 97° (E) 14:22:55 437.325
ITAMSAT 1 28 Jul 14:25:00 14:30:00 50° 74° (ENE) 14:35:04 435.822/435.867
AO-7 28 Jul 14:26:01 14:30:31 17° 58° (ENE) 14:35:32 29.400- 29.500
Cosmos 2491 28 Jul 14:29:55 14:37:34 31° 287° (WNW) 14:44:59 435.465 / 435.565
SPROUT 28 Jul 14:31:33 14:33:27 12° 291° (WNW) 14:35:09 437.525
Oscar 19 28 Jul 14:54:10 14:57:55 20° 266° (W) 15:01:30 437.125/150
BEESAT 28 Jul 15:13:02 15:17:41 54° 286° (WNW) 15:22:19 436.000
Gurwin Techsat 1B 28 Jul 15:18:02 15:23:04 43° 261° (W) 15:28:06 435.225
JAS-2 28 Jul 15:19:37 15:25:11 58° 73° (ENE) 15:31:32 435.910
STARS 28 Jul 15:20:44 15:22:59 14° 92° (E) 15:25:29 437.465
SWISSCUBE 28 Jul 15:33:23 15:37:32 29° 289° (WNW) 15:41:35 437.505
HORYU 2 28 Jul 15:35:00 15:38:49 29° 72° (ENE) 15:42:43 437.375
KKS-1 28 Jul 15:35:31 15:39:40 38° 98° (E) 15:43:51 437.445
Cosmos 2504 28 Jul 15:38:46 15:46:54 54° 269° (W) 15:55:09 435.465 / 435.565
ITUPSAT 1 28 Jul 15:52:44 15:56:22 21° 290° (WNW) 15:59:51 437.325
CUSAT 1 28 Jul 16:03:23 16:07:25 60° 82° (E) 16:12:48 437.405
ITAMSAT 1 28 Jul 16:06:41 16:09:50 15° 268° (W) 16:12:44 435.822/435.867
AO-7 28 Jul 16:13:59 16:22:22 88° 74° (ENE) 16:30:48 29.400- 29.500
GONETS M04 28 Jul 16:48:19 16:54:12 21° 68° (ENE) 17:00:32
STARS 28 Jul 16:55:30 16:59:37 39° 287° (WNW) 17:03:43 437.465
DANDE 28 Jul 16:56:25 17:00:02 50° 262° (W) 17:04:50 436.750
JAS-2 28 Jul 17:07:30 17:11:02 16° 273° (W) 17:14:25 435.910
HORYU 2 28 Jul 17:12:15 17:15:30 19° 266° (W) 17:18:37 437.375
KKS-1 28 Jul 17:13:19 17:16:01 15° 291° (WNW) 17:18:32 437.445
MOZHAYETS 4 28 Jul 17:32:44 17:37:23 88° 283° (WNW) 17:41:59
Cubesat XI-IV 28 Jul 17:44:56 17:49:12 25° 70° (ENE) 17:53:36 437.490
AO-7 28 Jul 18:11:41 18:16:15 15° 270° (W) 18:20:09 29.400- 29.500
CUTE-I 28 Jul 18:40:51 18:46:14 89° 255° (WSW) 18:51:38 437.470
GONETS M04 28 Jul 18:43:15 18:51:54 70° 267° (W) 19:00:33
VERMONT LUNAR 28 Jul 18:43:40 18:46:07 21° 144° (SE) 18:48:36 437.305
PCSat 28 Jul 18:46:06 18:49:38 18° 52° (NE) 18:53:21 145.827
CUBESAT XI-V 28 Jul 19:15:34 19:20:11 87° 282° (WNW) 19:24:47 437.345
Cosmos 2499 28 Jul 19:18:29 19:26:52 50° 78° (ENE) 19:35:26 435.465 / 435.565
Cubesat XI-IV 28 Jul 19:24:20 19:29:10 33° 263° (W) 19:33:57 437.490
CUTE 1.7 + AOD 2 28 Jul 19:46:26 19:46:52 10° 68° (ENE) 19:47:36 437.475
STRAND 1 28 Jul 19:46:27 19:51:26 53° 100° (E) 19:56:23 437.568
SO-50 28 Jul 19:50:37 19:55:31 65° 60° (ENE) 20:00:18 436.795
CANX-2 28 Jul 19:52:20 19:54:32 14° 70° (ENE) 19:56:57 2200.000
BRITE-PL 28 Jul 20:08:44 20:13:24 86° 78° (ENE) 20:17:45 437.365/2234.400
HO-68 28 Jul 20:11:22 20:17:55 42° 69° (ENE) 20:24:34 435.675
RS-15 28 Jul 20:13:15 20:17:14 13° 102° (ESE) 20:22:23 29.354- 29.394
VERMONT LUNAR 28 Jul 20:19:35 20:22:43 53° 338° (NNW) 20:25:50 437.305
AAUSAT CUBESAT 2 28 Jul 20:24:33 20:26:59 16° 70° (ENE) 20:29:36 437.432
PCSat 28 Jul 20:28:10 20:33:27 54° 249° (WSW) 20:38:42 145.827
PRISM 28 Jul 20:28:26 20:32:27 53° 285° (WNW) 20:36:25 437.425
GOMX 1 28 Jul 20:40:00 20:44:24 73° 259° (W) 20:48:37 467.674
DOVE 4 28 Jul 20:47:48 20:52:03 78° 78° (ENE) 20:56:12 437.250
CUBEBUG 2 28 Jul 20:48:54 20:50:34 13° 69° (ENE) 20:52:29 437.445
PHONESAT 2.4 28 Jul 21:06:43 21:10:04 44° 148° (SSE) 21:13:26 2401.200-2431.200
Oscar 11 28 Jul 21:08:17 21:11:37 23° 72° (ENE) 21:15:04 145.826/435.025
Cosmos 2499 28 Jul 21:12:16 21:19:45 31° 273° (W) 21:27:02 435.465 / 435.565
COMPASS 1 28 Jul 21:13:09 21:17:19 78° 78° (ENE) 21:21:33 437.405
CUTE 1.7 + AOD 2 28 Jul 21:18:12 21:22:21 54° 260° (W) 21:26:32 437.475
SEEDS 28 Jul 21:21:41 21:25:51 62° 259° (W) 21:30:04 437.485
ISS 28 Jul 21:25:24 21:27:59 22° 129° (SE) 21:30:38 145.825
CINEMA 3 28 Jul 21:25:54 21:30:02 90° 249° (WSW) 21:34:13 145.822/145.860
CANX-2 28 Jul 21:26:12 21:30:10 37° 262° (W) 21:34:09 2200.000
STRAND 1 28 Jul 21:27:19 21:30:15 15° 293° (WNW) 21:32:55 437.568
SO-50 28 Jul 21:34:01 21:35:34 11° 252° (WSW) 21:36:45 436.795
M-CUBED/EXP-1 PRIME 28 Jul 21:36:41 21:39:52 18° 97° (E) 21:43:12 437.505
HUMSAT D 28 Jul 21:45:36 21:47:29 13° 70° (ENE) 21:49:34 437.325/437.525
VERMONT LUNAR 28 Jul 21:57:25 21:59:52 20° 353° (N) 22:02:19 437.305
AAUSAT CUBESAT 2 28 Jul 21:58:32 22:02:20 33° 263° (W) 22:06:07 437.432
HO-68 28 Jul 21:59:34 22:05:45 30° 264° (W) 22:11:48 435.675
ZACube-1 28 Jul 22:00:19 22:04:22 55° 76° (ENE) 22:08:30 437.345
AUBIESAT-1 28 Jul 22:09:00 22:13:21 36° 102° (ESE) 22:17:36 437.475
DELFI C3 28 Jul 22:11:28 22:15:30 89° 250° (WSW) 22:19:36 145.870
UWE-3 28 Jul 22:15:22 22:19:29 68° 259° (WSW) 22:23:40 435.000/436.395/437.385
RS-15 28 Jul 22:17:23 22:28:14 81° 116° (ESE) 22:39:25 29.354- 29.394
CUBEBUG 2 28 Jul 22:23:02 22:26:56 40° 262° (W) 22:30:53 437.445
FUNcube-1 28 Jul 22:23:43 22:27:51 75° 259° (WSW) 22:32:03 145.935
AISAT 28 Jul 22:27:11 22:30:09 18° 70° (ENE) 22:33:14 437.250
50 SAT 28 Jul 22:31:34 22:34:23 20° 72° (ENE) 22:37:20 437.505
Oscar 11 28 Jul 22:44:11 22:47:43 24° 265° (W) 22:51:10 145.826/435.025
UKube-1 28 Jul 22:44:13 22:48:20 46° 74° (ENE) 22:52:30 .
PHONESAT 2.4 28 Jul 22:44:49 22:48:05 36° 342° (NNW) 22:51:22 2401.200-2431.200
UNISAT 6 28 Jul 22:48:30 22:52:17 25° 95° (E) 22:56:12 437.425
Cosmos 2491 28 Jul 22:49:59 22:55:04 17° 66° (ENE) 23:00:41 435.465 / 435.565
CUBEBUG 1 28 Jul 22:53:24 22:56:26 19° 71° (ENE) 22:59:36 437.445
ISS 28 Jul 23:01:36 23:04:20 24° 323° (NW) 23:07:03 145.825
ESTCUBE 1 28 Jul 23:02:42 23:06:40 31° 72° (ENE) 23:10:41 437.505/2401.250
VELOX 1 28 Jul 23:05:59 23:10:15 50° 75° (ENE) 23:14:33 145.980
DX 1 28 Jul 23:06:04 23:10:25 84° 256° (WSW) 23:14:47 434.975-435.025
M-CUBED/EXP-1 PRIME 28 Jul 23:10:17 23:14:47 39° 291° (WNW) 23:19:08 437.505
HUMSAT D 28 Jul 23:19:05 23:22:54 38° 262° (W) 23:26:46 437.325/437.525
POLYITAN 1 28 Jul 23:28:34 23:32:01 24° 96° (E) 23:35:33 437.675
TIGRISAT 28 Jul 23:32:46 23:37:27 79° 100° (E) 23:42:10 435.000
ANTELSAT 28 Jul 23:32:51 23:37:33 82° 100° (E) 23:42:17 437.575/2403.000
VERMONT LUNAR 28 Jul 23:34:43 23:37:15 22° 10° (N) 23:39:48 437.305
AIST 1 28 Jul 23:35:08 23:38:47 28° 78° (ENE) 23:42:28
SPROUT 28 Jul 23:44:09 23:47:10 20° 71° (ENE) 23:50:19 437.525
AUBIESAT-1 28 Jul 23:44:14 23:47:47 21° 295° (WNW) 23:51:09 437.475
POPSAT HIP 1 28 Jul 23:46:48 23:50:47 39° 98° (E) 23:54:49 437.405
QB50P2 28 Jul 23:53:20 23:57:29 50° 100° (E) 00:01:39 145.880/145.840
BEESAT 3 28 Jul 23:58:33 00:02:10 33° 113° (ESE) 00:05:52 437.485
AISAT 29 Jul 00:02:34 00:06:31 31° 263° (W) 00:10:25 437.250
50 SAT 29 Jul 00:05:54 00:08:53 21° 265° (W) 00:11:48 437.505
TISAT 1 29 Jul 00:10:41 00:14:01 24° 72° (ENE) 00:17:27 437.305
BUGSAT 1 29 Jul 00:11:08 00:15:02 46° 99° (E) 00:18:59 437.445
DUCHIFAT 1 29 Jul 00:22:13 00:26:27 74° 283° (WNW) 00:30:41 145.980
QB50P1 29 Jul 00:22:32 00:26:47 70° 284° (WNW) 00:31:00 145.935-145.965
UKube-1 29 Jul 00:23:13 00:24:45 11° 269° (W) 00:26:01 .
PHONESAT 2.4 29 Jul 00:23:53 00:26:38 21° 359° (N) 00:29:23 2401.200-2431.200
UNISAT 6 29 Jul 00:25:05 00:29:00 26° 288° (WNW) 00:32:51 437.425
NANOSAT C BR1 29 Jul 00:25:21 00:29:34 65° 284° (WNW) 00:33:47 145.865
CUBEBUG 1 29 Jul 00:28:47 00:32:38 29° 264° (W) 00:36:24 437.445
RS-15 29 Jul 00:33:05 00:42:05 27° 319° (NW) 00:51:01 29.354- 29.394
ESTCUBE 1 29 Jul 00:40:16 00:43:35 19° 266° (W) 00:46:45 437.505/2401.250
Cosmos 2491 29 Jul 00:44:19 00:53:03 79° 266° (W) 01:01:44 435.465 / 435.565
VELOX 1 29 Jul 00:45:55 00:47:09 11° 269° (W) 00:48:05 145.980
BEESAT 2 29 Jul 00:50:27 00:54:31 74° 297° (WNW) 00:58:39 435.950
SWISSCUBE 29 Jul 00:59:03 01:01:53 16° 69° (ENE) 01:04:55 437.505
YUBILEINY 29 Jul 01:00:49 01:09:24 71° 93° (E) 01:18:06 435.215
POLYITAN 1 29 Jul 01:04:28 01:07:49 22° 288° (WNW) 01:11:02 437.675
VERMONT LUNAR 29 Jul 01:11:11 01:14:20 73° 25° (NNE) 01:17:27 437.305
AIST 1 29 Jul 01:13:28 01:16:14 17° 271° (W) 01:18:50
ITUPSAT 1 29 Jul 01:17:15 01:20:55 23° 70° (ENE) 01:24:44 437.325
SPROUT 29 Jul 01:19:27 01:23:06 27° 264° (W) 01:26:42 437.525
POPSAT HIP 1 29 Jul 01:24:06 01:26:21 14° 290° (WNW) 01:28:23 437.405
Oscar 19 29 Jul 01:30:35 01:34:11 20° 93° (E) 01:37:59 437.125/150
QB50P2 29 Jul 01:31:42 01:32:59 11° 292° (WNW) 01:33:59 145.880/145.840
BEESAT 3 29 Jul 01:37:24 01:40:13 17° 308° (NW) 01:42:56 437.485
TISAT 1 29 Jul 01:46:32 01:49:45 21° 265° (W) 01:52:51 437.305
BUGSAT 1 29 Jul 01:49:04 01:50:09 11° 291° (WNW) 01:50:59 437.445
O/OREOS (USA 219) 29 Jul 01:50:24 01:54:19 32° 104° (ESE) 01:58:19 437.305
AIST 2 29 Jul 01:58:17 02:02:29 63° 299° (WNW) 02:06:43 435.215
PHONESAT 2.4 29 Jul 02:02:01 02:05:12 32° 16° (NNE) 02:08:23 2401.200-2431.200
BEESAT 29 Jul 02:14:34 02:19:21 81° 258° (WSW) 02:24:10 436.000
Cosmos 2504 29 Jul 02:14:50 02:19:10 18° 84° (E) 02:24:02 435.465 / 435.565
KKS-1 29 Jul 02:29:59 02:33:11 21° 71° (ENE) 02:36:32 437.445
SWISSCUBE 29 Jul 02:34:51 02:39:25 43° 261° (W) 02:43:59 437.505
JAS-2 29 Jul 02:36:23 02:39:11 13° 86° (E) 02:42:40 435.910
ITAMSAT 1 29 Jul 02:43:03 02:47:16 26° 95° (E) 02:51:34 435.822/435.867
Cosmos 2491 29 Jul 02:46:35 02:48:48 11° 279° (W) 02:50:09 435.465 / 435.565
VERMONT LUNAR 29 Jul 02:49:01 02:50:49 14° 218° (SW) 02:52:32 437.305
ITUPSAT 1 29 Jul 02:54:27 02:58:41 30° 264° (W) 03:02:51 437.325
YUBILEINY 29 Jul 03:00:57 03:07:10 20° 292° (WNW) 03:12:56 435.215
Oscar 19 29 Jul 03:08:54 03:13:42 39° 288° (WNW) 03:18:28 437.125/150
O/OREOS (USA 219) 29 Jul 03:30:39 03:33:50 18° 299° (WNW) 03:36:54 437.305
Gurwin Techsat 1B 29 Jul 03:38:36 03:43:54 74° 285° (WNW) 03:49:12 435.225
PHONESAT 2.4 29 Jul 03:39:53 03:43:17 54° 211° (SSW) 03:46:40 2401.200-2431.200
STARS 29 Jul 03:47:20 03:51:41 81° 258° (WSW) 03:56:04 437.465
Cosmos 2504 29 Jul 04:03:52 04:10:43 59° 280° (W) 04:17:59 435.465 / 435.565
KKS-1 29 Jul 04:05:52 04:09:41 27° 263° (W) 04:13:27 437.445
JUGNU 29 Jul 04:17:13 04:20:28 15° 166° (SSE) 04:23:46 437.505
JAS-2 29 Jul 04:17:25 04:25:18 83° 102° (ESE) 04:33:04 435.910
AO-7 29 Jul 04:21:20 04:28:57 40° 99° (E) 04:36:39 29.400- 29.500
ITAMSAT 1 29 Jul 04:22:15 04:26:46 30° 289° (WNW) 04:31:10 435.822/435.867
DANDE 29 Jul 04:23:48 04:25:44 14° 98° (E) 04:27:37 436.750
MOZHAYETS 4 29 Jul 04:29:55 04:34:21 49° 75° (ENE) 04:38:52
